Simultaneous Nadir Overpasses (SNOs) Predictions

Prediction of SNOs between AQUA and GOES-15 Satellite Orbit:

Table of predicted SNOs for the next 14.0 days since TLE Epoch: 6/1/2025
Index Date Time (AQUA) AQUA Lat,Lon GOES-15 Lat,Lon Distance(km) Time Diff (sec)
1 06/03/2025 10:23:04 0.81, 64.60 0.13, 61.42 361.49 80
2 06/03/2025 22:42:13 0.18, 59.96 -0.15, 61.45 169.42 80
3 06/05/2025 22:21:58 -0.92, 64.92 -0.14, 61.43 397.55 80
4 06/06/2025 10:41:17 -0.09, 60.25 0.17, 61.38 129.15 80
5 06/08/2025 10:21:01 0.99, 65.21 0.16, 61.37 437.37 80
6 06/08/2025 22:40:11 -0.02, 60.58 -0.18, 61.40 93.77 80
7 06/10/2025 22:19:54 -1.08, 65.54 -0.18, 61.40 472.14 80
8 06/11/2025 10:39:13 0.10, 60.87 0.20, 61.36 54.77 80
9 06/13/2025 22:38:05 -0.19, 61.21 -0.22, 61.39 20.64 80
